status,avgMeasuredTime,avgSpeed,extID,medianMeasuredTime,TIMESTAMP,vehicleCount,_id,REPORT_ID
OK,84,33,941,84,2014-08-01T08:00:00,1,20746996,201749
OK,84,33,941,84,2014-08-01T08:05:00,1,20747445,201749
OK,84,33,941,84,2014-08-01T08:10:00,0,20747818,201749
OK,84,33,941,84,2014-08-01T08:15:00,0,20748267,201749
OK,84,33,941,84,2014-08-01T08:20:00,0,20748716,201749
OK,175,15,941,175,2014-08-01T08:25:00,1,20749165,201749
OK,175,15,941,175,2014-08-01T08:30:00,1,20749614,201749
OK,175,15,941,175,2014-08-01T08:35:00,0,20750063,201749
OK,175,15,941,175,2014-08-01T08:40:00,0,20750512,201749
OK,175,15,941,175,2014-08-01T08:45:00,0,20750961,201749
OK,175,15,941,175,2014-08-01T08:50:00,0,20751410,201749
OK,105,26,941,105,2014-08-01T08:55:00,3,20751859,201749
OK,105,26,941,105,2014-08-01T09:00:00,3,20752308,201749
OK,135,20,941,135,2014-08-01T09:05:00,1,20752757,201749
OK,135,20,941,135,2014-08-01T09:10:00,1,20753206,201749
OK,135,20,941,135,2014-08-01T09:20:00,0,20754104,201749
OK,135,20,941,135,2014-08-01T09:25:00,0,20754553,201749
OK,74,37,941,74,2014-08-01T09:30:00,3,20755002,201749
OK,74,37,941,74,2014-08-01T09:35:00,3,20755451,201749
OK,70,39,941,70,2014-08-01T09:40:00,0,20755900,201749
OK,120,23,941,120,2014-08-01T09:45:00,1,20756349,201749
OK,120,23,941,120,2014-08-01T09:50:00,1,20756798,201749
OK,70,39,941,70,2014-08-01T09:55:00,0,20757247,201749
OK,70,39,941,70,2014-08-01T10:00:00,0,20757696,201749
OK,70,39,941,70,2014-08-01T10:05:00,0,20758145,201749
OK,70,39,941,70,2014-08-01T10:15:00,0,20759043,201749
OK,70,39,941,70,2014-08-01T10:20:00,0,20759492,201749
OK,70,39,941,70,2014-08-01T10:25:00,0,20759941,201749
OK,70,39,941,70,2014-08-01T10:30:00,0,20760390,201749
OK,48,58,941,48,2014-08-01T10:35:00,1,20760839,201749
OK,48,58,941,48,2014-08-01T10:40:00,1,20761288,201749
OK,48,58,941,48,2014-08-01T10:45:00,0,20761737,201749
OK,48,58,941,48,2014-08-01T10:50:00,0,20762186,201749
OK,158,17,941,158,2014-08-01T10:55:00,1,20762635,201749
OK,120,23,941,120,2014-08-01T11:00:00,3,20763084,201749
OK,111,25,941,111,2014-08-01T11:05:00,2,20763533,201749
OK,102,27,941,102,2014-08-01T11:10:00,0,20763982,201749
OK,102,27,941,102,2014-08-01T11:15:00,0,20764430,201749
OK,115,24,941,115,2014-08-01T11:20:00,1,20764879,201749
OK,115,24,941,115,2014-08-01T11:25:00,1,20765328,201749
OK,115,24,941,115,2014-08-01T11:30:00,0,20765777,201749
OK,115,24,941,115,2014-08-01T11:35:00,0,20766226,201749
OK,111,25,941,111,2014-08-01T11:40:00,1,20766675,201749
OK,111,25,941,111,2014-08-01T11:45:00,1,20767124,201749
OK,111,25,941,111,2014-08-01T11:50:00,0,20767573,201749
OK,111,25,941,111,2014-08-01T11:55:00,0,20768022,201749
OK,65,43,941,65,2014-08-01T12:00:00,1,20768471,201749
OK,57,49,941,57,2014-08-01T12:10:00,1,20769369,201749
OK,62,45,941,62,2014-08-01T12:15:00,2,20769818,201749
OK,62,45,941,62,2014-08-01T12:20:00,0,20770267,201749
OK,62,45,941,62,2014-08-01T12:25:00,0,20770716,201749
OK,62,45,941,62,2014-08-01T12:30:00,0,20771165,201749
OK,70,39,941,70,2014-08-01T12:35:00,1,20771614,201749
OK,75,37,941,75,2014-08-01T12:40:00,2,20772063,201749
OK,81,34,941,81,2014-08-01T12:45:00,1,20772512,201749
OK,81,34,941,81,2014-08-01T12:50:00,0,20772961,201749
OK,81,34,941,81,2014-08-01T12:55:00,0,20773410,201749
OK,81,34,941,81,2014-08-01T13:00:00,0,20773859,201749
OK,81,34,941,81,2014-08-01T13:05:00,0,20774308,201749
OK,81,34,941,81,2014-08-01T13:10:00,0,20774757,201749
OK,89,31,941,89,2014-08-01T13:15:00,1,20775206,201749
OK,89,31,941,89,2014-08-01T13:20:00,1,20775655,201749
OK,89,31,941,89,2014-08-01T13:25:00,0,20776104,201749
OK,48,58,941,48,2014-08-01T13:30:00,1,20776553,201749
OK,48,58,941,48,2014-08-01T13:35:00,1,20777002,201749
OK,48,58,941,48,2014-08-01T13:40:00,0,20777451,201749
OK,48,58,941,48,2014-08-01T13:45:00,0,20777900,201749
OK,48,58,941,48,2014-08-01T13:50:00,0,20778349,201749
OK,48,58,941,48,2014-08-01T14:00:00,0,20779247,201749
OK,48,58,941,48,2014-08-01T14:05:00,0,20779696,201749
OK,48,58,941,48,2014-08-01T14:10:00,0,20780145,201749
OK,146,19,941,146,2014-08-01T14:15:00,1,20780594,201749
OK,146,19,941,146,2014-08-01T14:20:00,1,20781043,201749
OK,146,19,941,146,2014-08-01T14:25:00,0,20781492,201749
OK,146,19,941,146,2014-08-01T14:30:00,0,20781941,201749
OK,146,19,941,146,2014-08-01T14:35:00,0,20782390,201749
OK,146,19,941,146,2014-08-01T14:40:00,0,20782839,201749
OK,146,19,941,146,2014-08-01T14:45:00,0,20783288,201749
OK,146,19,941,146,2014-08-01T14:50:00,0,20783737,201749
OK,146,19,941,146,2014-08-01T14:55:00,0,20784186,201749
OK,146,19,941,146,2014-08-01T15:00:00,0,20784635,201749
OK,146,19,941,146,2014-08-01T15:05:00,0,20785084,201749
OK,103,27,941,103,2014-08-01T15:10:00,1,20785533,201749
OK,103,27,941,103,2014-08-01T15:15:00,1,20785982,201749
OK,103,27,941,103,2014-08-01T15:20:00,0,20786431,201749
OK,103,27,941,103,2014-08-01T15:25:00,0,20786880,201749
OK,103,27,941,103,2014-08-01T15:30:00,0,20787329,201749
OK,103,27,941,103,2014-08-01T15:35:00,0,20787778,201749
OK,103,27,941,103,2014-08-01T15:40:00,0,20788227,201749
OK,103,27,941,103,2014-08-01T15:45:00,0,20788676,201749
OK,103,27,941,103,2014-08-01T15:50:00,0,20789125,201749
OK,103,27,941,103,2014-08-01T15:55:00,0,20789574,201749
OK,103,27,941,103,2014-08-01T16:00:00,0,20790023,201749
OK,103,27,941,103,2014-08-01T16:05:00,0,20790472,201749
OK,103,27,941,103,2014-08-01T16:10:00,0,20790921,201749
OK,103,27,941,103,2014-08-01T16:15:00,0,20791370,201749
OK,103,27,941,103,2014-08-01T16:20:00,0,20791819,201749
OK,103,27,941,103,2014-08-01T16:25:00,0,20792268,201749
OK,103,27,941,103,2014-08-01T16:30:00,0,20792717,201749
OK,56,49,941,56,2014-08-01T16:35:00,1,20793166,201749
OK,56,49,941,56,2014-08-01T16:40:00,1,20793615,201749
OK,71,39,941,71,2014-08-01T16:45:00,1,20794064,201749
OK,71,39,941,71,2014-08-01T16:50:00,1,20794513,201749
OK,71,39,941,71,2014-08-01T16:55:00,0,20794962,201749
OK,71,39,941,71,2014-08-01T17:00:00,0,20795411,201749
OK,71,39,941,71,2014-08-01T17:05:00,0,20795860,201749
OK,71,39,941,71,2014-08-01T17:10:00,0,20796309,201749
OK,71,39,941,71,2014-08-01T17:15:00,0,20796758,201749
OK,71,39,941,71,2014-08-01T17:20:00,0,20797207,201749
OK,103,27,941,103,2014-08-01T17:25:00,1,20797656,201749
OK,103,27,941,103,2014-08-01T17:30:00,1,20798105,201749
OK,103,27,941,103,2014-08-01T17:35:00,0,20798554,201749
OK,103,27,941,103,2014-08-01T17:40:00,0,20799003,201749
OK,103,27,941,103,2014-08-01T17:45:00,0,20799452,201749
OK,103,27,941,103,2014-08-01T17:50:00,0,20799901,201749
OK,103,27,941,103,2014-08-01T17:55:00,0,20800350,201749
OK,103,27,941,103,2014-08-01T18:00:00,0,20800799,201749
OK,103,27,941,103,2014-08-01T18:05:00,0,20801248,201749
OK,103,27,941,103,2014-08-01T18:10:00,0,20801697,201749
OK,103,27,941,103,2014-08-01T18:15:00,0,20802146,201749
OK,103,27,941,103,2014-08-01T18:20:00,0,20802595,201749
OK,103,27,941,103,2014-08-01T18:25:00,0,20803044,201749
OK,103,27,941,103,2014-08-01T18:30:00,0,20803493,201749
OK,103,27,941,103,2014-08-01T18:35:00,0,20803942,201749
OK,103,27,941,103,2014-08-01T18:40:00,0,20804391,201749
OK,103,27,941,103,2014-08-01T18:45:00,0,20804840,201749
OK,103,27,941,103,2014-08-01T18:50:00,0,20805289,201749
OK,103,27,941,103,2014-08-01T18:55:00,0,20805738,201749
OK,103,27,941,103,2014-08-01T19:00:00,0,20806187,201749
OK,103,27,941,103,2014-08-01T19:05:00,0,20806636,201749
OK,103,27,941,103,2014-08-01T19:10:00,0,20807085,201749
OK,103,27,941,103,2014-08-01T19:15:00,0,20807534,201749
OK,103,27,941,103,2014-08-01T19:20:00,0,20807983,201749
OK,103,27,941,103,2014-08-01T19:25:00,0,20808432,201749
OK,103,27,941,103,2014-08-01T19:30:00,0,20808881,201749
OK,103,27,941,103,2014-08-01T19:35:00,0,20809330,201749
OK,103,27,941,103,2014-08-01T19:40:00,0,20809779,201749
OK,103,27,941,103,2014-08-01T19:45:00,0,20810228,201749
OK,103,27,941,103,2014-08-01T19:50:00,0,20810677,201749
OK,103,27,941,103,2014-08-01T19:55:00,0,20811126,201749
OK,103,27,941,103,2014-08-01T22:00:00,0,20816855,201749
OK,103,27,941,103,2014-08-02T00:00:00,0,20823294,201749
OK,103,27,941,103,2014-08-02T00:05:00,0,20823743,201749
OK,103,27,941,103,2014-08-02T00:10:00,0,20824192,201749
OK,103,27,941,103,2014-08-02T00:15:00,0,20824641,201749
OK,103,27,941,103,2014-08-02T00:20:00,0,20825090,201749
OK,103,27,941,103,2014-08-02T00:25:00,0,20825539,201749
OK,103,27,941,103,2014-08-02T00:30:00,0,20825988,201749
OK,103,27,941,103,2014-08-02T00:35:00,0,20826437,201749
OK,103,27,941,103,2014-08-02T00:40:00,0,20826886,201749
OK,103,27,941,103,2014-08-02T00:45:00,0,20827335,201749
OK,103,27,941,103,2014-08-02T00:50:00,0,20827784,201749
OK,103,27,941,103,2014-08-02T00:55:00,0,20828233,201749
OK,103,27,941,103,2014-08-02T01:00:00,0,20828682,201749
OK,103,27,941,103,2014-08-02T01:05:00,0,20829131,201749
OK,103,27,941,103,2014-08-02T01:10:00,0,20829580,201749
OK,103,27,941,103,2014-08-02T01:15:00,0,20830029,201749
OK,103,27,941,103,2014-08-02T01:20:00,0,20830478,201749
OK,103,27,941,103,2014-08-02T01:25:00,0,20830927,201749
OK,103,27,941,103,2014-08-02T01:30:00,0,20831376,201749
OK,103,27,941,103,2014-08-02T01:35:00,0,20831825,201749
OK,103,27,941,103,2014-08-02T01:40:00,0,20832274,201749
OK,103,27,941,103,2014-08-02T01:45:00,0,20832723,201749
OK,103,27,941,103,2014-08-02T01:50:00,0,20833172,201749
OK,103,27,941,103,2014-08-02T01:55:00,0,20833621,201749
OK,103,27,941,103,2014-08-02T02:00:00,0,20834070,201749
OK,103,27,941,103,2014-08-02T02:05:00,0,20834519,201749
OK,103,27,941,103,2014-08-02T02:10:00,0,20834968,201749
OK,103,27,941,103,2014-08-02T02:15:00,0,20835417,201749
OK,103,27,941,103,2014-08-02T02:20:00,0,20835866,201749
OK,103,27,941,103,2014-08-02T02:25:00,0,20836315,201749
OK,103,27,941,103,2014-08-02T02:30:00,0,20836764,201749
OK,103,27,941,103,2014-08-02T02:35:00,0,20837213,201749
OK,103,27,941,103,2014-08-02T02:40:00,0,20837662,201749
OK,103,27,941,103,2014-08-02T02:45:00,0,20838111,201749
OK,103,27,941,103,2014-08-02T02:50:00,0,20838560,201749
OK,103,27,941,103,2014-08-02T02:55:00,0,20839009,201749
OK,103,27,941,103,2014-08-02T03:00:00,0,20839458,201749
OK,103,27,941,103,2014-08-02T03:05:00,0,20839907,201749
OK,103,27,941,103,2014-08-02T03:10:00,0,20840356,201749
OK,103,27,941,103,2014-08-02T03:15:00,0,20840805,201749
OK,103,27,941,103,2014-08-02T03:20:00,0,20841254,201749
OK,103,27,941,103,2014-08-02T03:25:00,0,20841703,201749
OK,103,27,941,103,2014-08-02T03:30:00,0,20842152,201749
OK,103,27,941,103,2014-08-02T03:35:00,0,20842601,201749
OK,103,27,941,103,2014-08-02T03:40:00,0,20843050,201749
OK,103,27,941,103,2014-08-02T03:45:00,0,20843499,201749
OK,103,27,941,103,2014-08-02T03:50:00,0,20843948,201749
OK,103,27,941,103,2014-08-02T03:55:00,0,20844397,201749
OK,103,27,941,103,2014-08-02T06:00:00,0,20851851,201749
OK,103,27,941,103,2014-08-02T06:05:00,0,20852300,201749
OK,103,27,941,103,2014-08-02T06:10:00,0,20852749,201749
OK,103,27,941,103,2014-08-02T06:15:00,0,20853198,201749
OK,103,27,941,103,2014-08-02T06:20:00,0,20853647,201749
OK,103,27,941,103,2014-08-02T06:25:00,0,20854096,201749
OK,103,27,941,103,2014-08-02T06:30:00,0,20854545,201749
OK,103,27,941,103,2014-08-02T06:35:00,0,20854994,201749
OK,103,27,941,103,2014-08-02T06:40:00,0,20855443,201749
OK,103,27,941,103,2014-08-02T06:45:00,0,20855892,201749
OK,103,27,941,103,2014-08-02T06:50:00,0,20856341,201749
OK,103,27,941,103,2014-08-02T06:55:00,0,20856790,201749
OK,103,27,941,103,2014-08-02T07:00:00,0,20857239,201749
OK,103,27,941,103,2014-08-02T07:05:00,0,20857688,201749
OK,103,27,941,103,2014-08-02T07:10:00,0,20858137,201749
OK,103,27,941,103,2014-08-02T07:15:00,0,20858586,201749
OK,103,27,941,103,2014-08-02T07:20:00,0,20859035,201749
OK,103,27,941,103,2014-08-02T07:25:00,0,20859484,201749
OK,103,27,941,103,2014-08-02T07:30:00,0,20859933,201749
OK,103,27,941,103,2014-08-02T07:35:00,0,20860382,201749
OK,103,27,941,103,2014-08-02T07:40:00,0,20860831,201749
OK,103,27,941,103,2014-08-02T07:45:00,0,20861280,201749
OK,103,27,941,103,2014-08-02T07:50:00,0,20861729,201749
OK,103,27,941,103,2014-08-02T07:55:00,0,20862178,201749
OK,103,27,941,103,2014-08-02T08:00:00,0,20862627,201749
OK,103,27,941,103,2014-08-02T08:05:00,0,20863076,201749
OK,103,27,941,103,2014-08-02T08:10:00,0,20863525,201749
OK,103,27,941,103,2014-08-02T08:15:00,0,20863974,201749
OK,103,27,941,103,2014-08-02T08:20:00,0,20864423,201749
OK,103,27,941,103,2014-08-02T08:25:00,0,20864872,201749
OK,103,27,941,103,2014-08-02T08:30:00,0,20865321,201749
OK,103,27,941,103,2014-08-02T08:35:00,0,20865770,201749
OK,103,27,941,103,2014-08-02T08:40:00,0,20866219,201749
OK,152,18,941,152,2014-08-02T08:45:00,1,20866668,201749
OK,165,16,941,165,2014-08-02T08:50:00,1,20867117,201749
OK,165,16,941,165,2014-08-02T08:55:00,0,20867566,201749
OK,165,16,941,165,2014-08-02T09:00:00,0,20868015,201749
OK,165,16,941,165,2014-08-02T09:05:00,0,20868464,201749
OK,59,47,941,59,2014-08-02T09:10:00,1,20868913,201749
OK,59,47,941,59,2014-08-02T09:15:00,0,20869362,201749
OK,84,33,941,84,2014-08-02T09:20:00,1,20869811,201749
OK,63,44,941,63,2014-08-02T09:25:00,1,20870260,201749
OK,63,44,941,63,2014-08-02T09:30:00,1,20870709,201749
OK,116,24,941,116,2014-08-02T09:35:00,2,20871158,201749
OK,115,24,941,115,2014-08-02T09:40:00,3,20871607,201749
OK,63,44,941,63,2014-08-02T09:45:00,0,20872056,201749
OK,63,44,941,63,2014-08-02T09:50:00,0,20872505,201749
OK,97,28,941,97,2014-08-02T09:55:00,1,20872954,201749
OK,97,28,941,97,2014-08-02T10:00:00,1,20873403,201749
OK,97,28,941,97,2014-08-02T10:05:00,0,20873852,201749
OK,56,49,941,56,2014-08-02T10:10:00,1,20874301,201749
OK,85,32,941,85,2014-08-02T10:15:00,2,20874750,201749
OK,94,29,941,94,2014-08-02T10:20:00,2,20875199,201749
OK,75,37,941,75,2014-08-02T10:25:00,1,20875648,201749
OK,75,37,941,75,2014-08-02T10:30:00,0,20876097,201749
OK,75,37,941,75,2014-08-02T10:35:00,0,20876546,201749
OK,124,22,941,124,2014-08-02T10:40:00,1,20876995,201749
OK,124,22,941,124,2014-08-02T10:45:00,1,20877444,201749
OK,124,22,941,124,2014-08-02T10:50:00,0,20877893,201749
OK,124,22,941,124,2014-08-02T10:55:00,0,20878342,201749
OK,124,22,941,124,2014-08-02T11:00:00,0,20878791,201749
OK,124,22,941,124,2014-08-02T11:05:00,0,20879240,201749
OK,124,22,941,124,2014-08-02T11:10:00,0,20879689,201749
OK,124,22,941,124,2014-08-02T11:15:00,0,20880138,201749
OK,74,37,941,74,2014-08-02T11:20:00,1,20880587,201749
OK,74,37,941,74,2014-08-02T11:25:00,1,20881036,201749
OK,74,37,941,74,2014-08-02T11:30:00,0,20881485,201749
OK,74,37,941,74,2014-08-02T11:35:00,0,20881934,201749
OK,74,37,941,74,2014-08-02T11:40:00,0,20882383,201749
OK,87,32,941,87,2014-08-02T11:45:00,1,20882832,201749
OK,87,32,941,87,2014-08-02T11:50:00,1,20883281,201749
OK,74,37,941,74,2014-08-02T11:55:00,0,20883730,201749
OK,74,37,941,74,2014-08-02T12:00:00,0,20884179,201749
OK,101,27,941,101,2014-08-02T12:05:00,1,20884628,201749
OK,101,27,941,101,2014-08-02T12:10:00,1,20885077,201749
OK,101,27,941,101,2014-08-02T12:15:00,0,20885526,201749
OK,101,27,941,101,2014-08-02T12:20:00,0,20885975,201749
OK,101,27,941,101,2014-08-02T12:25:00,0,20886424,201749
OK,101,27,941,101,2014-08-02T12:30:00,0,20886873,201749
OK,101,27,941,101,2014-08-02T12:35:00,0,20887322,201749
OK,101,27,941,101,2014-08-02T12:40:00,0,20887771,201749
OK,101,27,941,101,2014-08-02T12:45:00,0,20888220,201749
OK,101,27,941,101,2014-08-02T12:50:00,0,20888669,201749
OK,101,27,941,101,2014-08-02T12:55:00,0,20889118,201749
OK,101,27,941,101,2014-08-02T13:00:00,0,20889567,201749
OK,101,27,941,101,2014-08-02T13:05:00,0,20890016,201749
OK,101,27,941,101,2014-08-02T13:10:00,0,20890465,201749
OK,101,27,941,101,2014-08-02T13:15:00,0,20890914,201749
OK,101,27,941,101,2014-08-02T13:20:00,0,20891363,201749
OK,80,34,941,80,2014-08-02T13:25:00,1,20891812,201749
OK,63,44,941,63,2014-08-02T13:30:00,2,20892261,201749
OK,46,60,941,46,2014-08-02T13:35:00,1,20892710,201749
OK,46,60,941,46,2014-08-02T13:40:00,0,20893159,201749
OK,46,60,941,46,2014-08-02T13:45:00,0,20893608,201749
OK,46,60,941,46,2014-08-02T13:50:00,0,20894057,201749
OK,46,60,941,46,2014-08-02T13:55:00,0,20894506,201749
OK,46,60,941,46,2014-08-02T14:00:00,0,20894955,201749
OK,46,60,941,46,2014-08-02T14:05:00,0,20895404,201749
OK,46,60,941,46,2014-08-02T14:10:00,0,20895853,201749
OK,46,60,941,46,2014-08-02T14:15:00,0,20896302,201749
OK,46,60,941,46,2014-08-02T14:20:00,0,20896751,201749
OK,105,26,941,105,2014-08-02T14:25:00,1,20897200,201749
OK,105,26,941,105,2014-08-02T14:30:00,1,20897649,201749
OK,105,26,941,105,2014-08-02T14:35:00,0,20898098,201749
OK,105,26,941,105,2014-08-02T14:40:00,0,20898547,201749
OK,105,26,941,105,2014-08-02T14:45:00,0,20898996,201749
OK,105,26,941,105,2014-08-02T14:50:00,0,20899445,201749
OK,105,26,941,105,2014-08-02T14:55:00,0,20899894,201749
OK,105,26,941,105,2014-08-02T15:00:00,0,20900343,201749
OK,105,26,941,105,2014-08-02T15:05:00,0,20900792,201749
OK,105,26,941,105,2014-08-02T15:10:00,0,20901241,201749
OK,98,28,941,98,2014-08-02T15:15:00,1,20901690,201749
OK,98,28,941,98,2014-08-02T15:20:00,0,20902139,201749
OK,98,28,941,98,2014-08-02T15:25:00,0,20902588,201749
OK,98,28,941,98,2014-08-02T15:30:00,0,20903037,201749
OK,98,28,941,98,2014-08-02T15:35:00,0,20903486,201749
OK,98,28,941,98,2014-08-02T15:40:00,0,20903935,201749
OK,98,28,941,98,2014-08-02T15:45:00,0,20904384,201749
OK,98,28,941,98,2014-08-02T15:50:00,0,20904833,201749
OK,98,28,941,98,2014-08-02T15:55:00,0,20905282,201749
OK,98,28,941,98,2014-08-02T16:00:00,0,20905731,201749
OK,98,28,941,98,2014-08-02T16:05:00,0,20906180,201749
OK,98,28,941,98,2014-08-02T16:10:00,0,20906629,201749
OK,98,28,941,98,2014-08-02T16:15:00,0,20907078,201749
OK,98,28,941,98,2014-08-02T16:20:00,0,20907527,201749
OK,98,28,941,98,2014-08-02T16:25:00,0,20907976,201749
OK,98,28,941,98,2014-08-02T16:30:00,0,20908425,201749
OK,82,34,941,82,2014-08-02T16:35:00,1,20908874,201749
OK,82,34,941,82,2014-08-02T16:40:00,1,20909323,201749
OK,82,34,941,82,2014-08-02T16:45:00,0,20909772,201749
OK,82,34,941,82,2014-08-02T16:50:00,0,20910221,201749
OK,82,34,941,82,2014-08-02T16:55:00,0,20910670,201749
OK,82,34,941,82,2014-08-02T17:00:00,0,20911119,201749
OK,82,34,941,82,2014-08-02T17:05:00,0,20911568,201749
OK,82,34,941,82,2014-08-02T17:10:00,0,20912017,201749
OK,82,34,941,82,2014-08-02T17:15:00,0,20912466,201749
OK,82,34,941,82,2014-08-02T17:20:00,0,20912915,201749
OK,82,34,941,82,2014-08-02T17:25:00,0,20913364,201749
OK,82,34,941,82,2014-08-02T17:30:00,0,20913813,201749
OK,82,34,941,82,2014-08-02T17:35:00,0,20914262,201749
OK,82,34,941,82,2014-08-02T17:40:00,0,20914711,201749
OK,82,34,941,82,2014-08-02T17:45:00,0,20915160,201749
OK,82,34,941,82,2014-08-02T17:50:00,0,20915609,201749
OK,82,34,941,82,2014-08-02T17:55:00,0,20916058,201749
OK,82,34,941,82,2014-08-02T18:00:00,0,20916507,201749
OK,82,34,941,82,2014-08-02T18:05:00,0,20916956,201749
OK,82,34,941,82,2014-08-02T18:10:00,0,20917405,201749
OK,82,34,941,82,2014-08-02T18:15:00,0,20917854,201749
OK,82,34,941,82,2014-08-02T18:20:00,0,20918303,201749
OK,82,34,941,82,2014-08-02T18:25:00,0,20918752,201749
OK,82,34,941,82,2014-08-02T18:30:00,0,20919201,201749
OK,82,34,941,82,2014-08-02T18:35:00,0,20919650,201749
OK,82,34,941,82,2014-08-02T18:40:00,0,20920099,201749
OK,82,34,941,82,2014-08-02T18:45:00,0,20920548,201749
OK,59,47,941,59,2014-08-02T18:50:00,1,20920997,201749
OK,59,47,941,59,2014-08-02T18:55:00,1,20921446,201749
OK,59,47,941,59,2014-08-02T19:00:00,0,20921895,201749
OK,59,47,941,59,2014-08-02T19:05:00,0,20922344,201749
OK,59,47,941,59,2014-08-02T19:10:00,0,20922793,201749
OK,59,47,941,59,2014-08-02T19:15:00,0,20923242,201749
OK,59,47,941,59,2014-08-02T19:20:00,0,20923691,201749
OK,59,47,941,59,2014-08-02T19:25:00,0,20924140,201749
OK,59,47,941,59,2014-08-02T19:30:00,0,20924589,201749
OK,59,47,941,59,2014-08-02T19:35:00,0,20925038,201749
OK,59,47,941,59,2014-08-02T19:40:00,0,20925487,201749
OK,59,47,941,59,2014-08-02T19:45:00,0,20925936,201749
OK,59,47,941,59,2014-08-02T19:50:00,0,20926385,201749
OK,59,47,941,59,2014-08-02T19:55:00,0,20926834,201749
OK,59,47,941,59,2014-08-02T20:00:00,0,20927283,201749
OK,59,47,941,59,2014-08-02T20:05:00,0,20927732,201749
OK,59,47,941,59,2014-08-02T20:10:00,0,20928181,201749
OK,59,47,941,59,2014-08-02T20:15:00,0,20928630,201749
OK,59,47,941,59,2014-08-02T20:20:00,0,20929079,201749
OK,59,47,941,59,2014-08-02T20:25:00,0,20929528,201749
OK,59,47,941,59,2014-08-02T20:30:00,0,20929977,201749
OK,59,47,941,59,2014-08-02T20:35:00,0,20930426,201749
OK,59,47,941,59,2014-08-02T20:40:00,0,20930875,201749
OK,59,47,941,59,2014-08-02T20:45:00,0,20931324,201749
OK,59,47,941,59,2014-08-02T20:50:00,0,20931773,201749
OK,59,47,941,59,2014-08-02T20:55:00,0,20932222,201749
OK,59,47,941,59,2014-08-02T21:00:00,0,20932671,201749
OK,59,47,941,59,2014-08-02T21:05:00,0,20933120,201749
OK,59,47,941,59,2014-08-02T21:10:00,0,20933569,201749
OK,59,47,941,59,2014-08-02T21:15:00,0,20934018,201749
OK,59,47,941,59,2014-08-02T21:20:00,0,20934467,201749
OK,59,47,941,59,2014-08-02T21:25:00,0,20934916,201749
OK,59,47,941,59,2014-08-02T21:30:00,0,20935365,201749
OK,59,47,941,59,2014-08-02T21:35:00,0,20935814,201749
OK,59,47,941,59,2014-08-02T21:40:00,0,20936263,201749
OK,59,47,941,59,2014-08-02T21:45:00,0,20936712,201749
OK,59,47,941,59,2014-08-02T21:50:00,0,20937161,201749
OK,59,47,941,59,2014-08-02T21:55:00,0,20937610,201749
OK,59,47,941,59,2014-08-02T22:00:00,0,20938059,201749
OK,70,39,941,70,2014-08-02T22:05:00,1,20938508,201749
OK,70,39,941,70,2014-08-02T22:10:00,1,20938957,201749
OK,70,39,941,70,2014-08-02T22:15:00,0,20939406,201749
OK,70,39,941,70,2014-08-02T22:20:00,0,20939855,201749
OK,70,39,941,70,2014-08-02T22:25:00,0,20940304,201749
OK,70,39,941,70,2014-08-02T22:30:00,0,20940753,201749
OK,70,39,941,70,2014-08-02T22:35:00,0,20941202,201749
OK,70,39,941,70,2014-08-02T22:40:00,0,20941651,201749
OK,70,39,941,70,2014-08-02T22:45:00,0,20942100,201749
OK,70,39,941,70,2014-08-02T22:50:00,0,20942549,201749
OK,70,39,941,70,2014-08-02T22:55:00,0,20942998,201749
OK,70,39,941,70,2014-08-02T23:00:00,0,20943447,201749
OK,70,39,941,70,2014-08-02T23:10:00,0,20943896,201749
OK,70,39,941,70,2014-08-02T23:15:00,0,20944345,201749
OK,70,39,941,70,2014-08-02T23:20:00,0,20944794,201749
OK,70,39,941,70,2014-08-02T23:25:00,0,20945243,201749
OK,70,39,941,70,2014-08-02T23:30:00,0,20945692,201749
OK,70,39,941,70,2014-08-02T23:35:00,0,20946141,201749
OK,70,39,941,70,2014-08-02T23:40:00,0,20946590,201749
OK,70,39,941,70,2014-08-02T23:45:00,0,20947039,201749
OK,70,39,941,70,2014-08-02T23:50:00,0,20947488,201749
OK,70,39,941,70,2014-08-02T23:55:00,0,20947937,201749
OK,70,39,941,70,2014-08-03T00:00:00,0,20948386,201749
OK,70,39,941,70,2014-08-03T00:05:00,0,20948835,201749
OK,70,39,941,70,2014-08-03T00:10:00,0,20949283,201749
OK,70,39,941,70,2014-08-03T00:15:00,0,20949732,201749
OK,70,39,941,70,2014-08-03T00:20:00,0,20950181,201749
OK,70,39,941,70,2014-08-03T00:25:00,0,20950630,201749
OK,70,39,941,70,2014-08-03T00:30:00,0,20951079,201749
OK,70,39,941,70,2014-08-03T00:35:00,0,20951528,201749
OK,70,39,941,70,2014-08-03T00:40:00,0,20951977,201749
OK,70,39,941,70,2014-08-03T00:45:00,0,20952426,201749
OK,46,60,941,46,2014-08-03T00:50:00,1,20952875,201749
OK,46,60,941,46,2014-08-03T00:55:00,0,20953324,201749
OK,46,60,941,46,2014-08-03T01:00:00,0,20953773,201749
OK,46,60,941,46,2014-08-03T01:05:00,0,20954222,201749
OK,46,60,941,46,2014-08-03T01:10:00,0,20954671,201749
OK,46,60,941,46,2014-08-03T01:15:00,0,20955120,201749
OK,46,60,941,46,2014-08-03T01:20:00,0,20955569,201749
OK,46,60,941,46,2014-08-03T01:25:00,0,20956018,201749
OK,46,60,941,46,2014-08-03T01:30:00,0,20956467,201749
OK,46,60,941,46,2014-08-03T01:35:00,0,20956916,201749
OK,46,60,941,46,2014-08-03T01:40:00,0,20957365,201749
OK,46,60,941,46,2014-08-03T01:45:00,0,20957814,201749
OK,46,60,941,46,2014-08-03T01:50:00,0,20958263,201749